owner,sensor,date,latitude,longitude,vertical_datum,wind_speed,wind_to_direction,wind_speed_of_gust,qcFlag 
TABS,ioos:station:wmo:42047:1,2008-11-01T00:09:00Z,27.8966,-93.5973,4.0,3.52740698,84.30516168,6.24,'11111222,11111222,11111222' 
TABS,ioos:station:wmo:42047:1,2008-11-01T00:39:00Z,27.8966,-93.5973,4.0,5.117264894,85.29173785,7.57,'11111222,11111222,11111222' 
TABS,ioos:station:wmo:42047:1,2008-11-01T01:09:00Z,27.8966,-93.5973,4.0,4.370286032,89.3440511,6.5,'11111222,11111222,11111222' 
TABS,ioos:station:wmo:42047:1,2008-11-01T01:39:00Z,27.8966,-93.5973,4.0,4.478760989,86.41527318,6.76,'11111222,11111222,11111222' 
TABS,ioos:station:wmo:42047:1,2008-11-01T02:09:00Z,27.8966,-93.5973,4.0,4.643490067,87.77801714,7.53,'11111222,11111222,11111222' 
TABS,ioos:station:wmo:42047:1,2008-11-01T02:39:00Z,27.8966,-93.5973,4.0,4.508702696,93.56089313,7.5,'11111222,11111222,11111222' 
TABS,ioos:station:wmo:42047:1,2008-11-01T03:09:00Z,27.8966,-93.5973,4.0,5.325082159,81.03256709,8.3,'11111222,11111222,11111222' 
TABS,ioos:station:wmo:42047:1,2008-11-01T03:39:00Z,27.8966,-93.5973,4.0,5.542364117,86.17176001,8.63,'11111222,11111222,11111222' 
TABS,ioos:station:wmo:42047:1,2008-11-01T04:09:00Z,27.8966,-93.5973,4.0,5.42406674,92.21925304,7.86,'11111222,11111222,11111222' 
TABS,ioos:station:wmo:42047:1,2008-11-01T04:39:00Z,27.8966,-93.5973,4.0,4.809365863,93.57674693,8.07,'11111222,11111222,11111222' 
TABS,ioos:station:wmo:42047:1,2008-11-01T05:09:00Z,27.8966,-93.5973,4.0,5.096920639,82.21924284,7.44,'11111222,11111222,11111222' 
TABS,ioos:station:wmo:42047:1,2008-11-01T05:39:00Z,27.8966,-93.5973,4.0,4.565303933,83.9643108,7.25,'11111222,11111222,11111222' 
TABS,ioos:station:wmo:42047:1,2008-11-01T06:09:00Z,27.8966,-93.5973,4.0,4.216277979,86.87252175,6.44,'11111222,11111222,11111222' 
TABS,ioos:station:wmo:42047:1,2008-11-01T06:39:00Z,27.8966,-93.5973,4.0,3.780648093,91.06133013,6.44,'11111222,11111222,11111222' 
TABS,ioos:station:wmo:42047:1,2008-11-01T07:09:00Z,27.8966,-93.5973,4.0,3.941268831,88.54568702,5.82,'11111222,11111222,11111222' 
TABS,ioos:station:wmo:42047:1,2008-11-01T07:39:00Z,27.8966,-93.5973,4.0,3.990613988,88.99449543,6.55,'11111222,11111222,11111222' 
TABS,ioos:station:wmo:42047:1,2008-11-01T08:09:00Z,27.8966,-93.5973,4.0,3.894637339,92.79670064,6.68,'11111222,11111222,11111222' 
TABS,ioos:station:wmo:42047:1,2008-11-01T08:39:00Z,27.8966,-93.5973,4.0,3.790118732,81.65570701,6.06,'11111222,11111222,11111222' 
TABS,ioos:station:wmo:42047:1,2008-11-01T09:09:00Z,27.8966,-93.5973,4.0,4.004060439,69.07512627,6.62,'11111222,11111222,11111222' 
TABS,ioos:station:wmo:42047:1,2008-11-01T09:39:00Z,27.8966,-93.5973,4.0,3.513360215,68.10737132,5.79,'11111222,11111222,11111222' 
TABS,ioos:station:wmo:42047:1,2008-11-01T10:09:00Z,27.8966,-93.5973,4.0,3.310589071,61.88643595,5.64,'11111222,11111222,11111222' 
TABS,ioos:station:wmo:42047:1,2008-11-01T10:39:00Z,27.8966,-93.5973,4.0,3.15293514,63.84093531,4.89,'11111222,11111222,11111222' 
TABS,ioos:station:wmo:42047:1,2008-11-01T11:09:00Z,27.8966,-93.5973,4.0,3.496927223,49.5227804,6.29,'11111222,11111222,11111222' 
TABS,ioos:station:wmo:42047:1,2008-11-01T11:39:00Z,27.8966,-93.5973,4.0,2.65452444,60.92407855,4.6,'11111222,11111222,11111222' 
TABS,ioos:station:wmo:42047:1,2008-11-01T12:09:00Z,27.8966,-93.5973,4.0,2.971060417,43.3631111,5.33,'11111222,11111222,11111222' 
TABS,ioos:station:wmo:42047:1,2008-11-01T12:39:00Z,27.8966,-93.5973,4.0,2.902585055,47.79238015,5.45,'11111222,11111222,11111222' 
TABS,ioos:station:wmo:42047:1,2008-11-01T13:09:00Z,27.8966,-93.5973,4.0,2.988193434,37.52153132,5.21,'11111222,11111222,11111222' 
TABS,ioos:station:wmo:42047:1,2008-11-01T13:39:00Z,27.8966,-93.5973,4.0,3.303891645,43.15998558,5.24,'11111222,11111222,11111222' 
TABS,ioos:station:wmo:42047:1,2008-11-01T14:09:00Z,27.8966,-93.5973,4.0,2.928822289,33.58126394,4.79,'11111222,11111222,11111222' 
TABS,ioos:station:wmo:42047:1,2008-11-01T14:39:00Z,27.8966,-93.5973,4.0,2.865745976,42.87859288,5.29,'11111222,11111222,11111222' 
TABS,ioos:station:wmo:42047:1,2008-11-01T15:09:00Z,27.8966,-93.5973,4.0,2.60403533,42.82100933,5.38,'11111222,11111222,11111222' 
TABS,ioos:station:wmo:42047:1,2008-11-01T15:39:00Z,27.8966,-93.5973,4.0,2.610785322,49.6602189,4.55,'11111222,11111222,11111222' 
TABS,ioos:station:wmo:42047:1,2008-11-01T16:09:00Z,27.8966,-93.5973,4.0,2.407841357,61.19927768,4.34,'11111222,11111222,11111222' 
TABS,ioos:station:wmo:42047:1,2008-11-01T16:39:00Z,27.8966,-93.5973,4.0,1.675977327,45.72490692,3.54,'11111222,11111222,11111222' 
TABS,ioos:station:wmo:42047:1,2008-11-01T17:09:00Z,27.8966,-93.5973,4.0,1.675977327,45.72490692,3.65,'11111222,11111222,11111222' 
TABS,ioos:station:wmo:42047:1,2008-11-01T17:39:00Z,27.8966,-93.5973,4.0,2.03039405,46.79582326,3.54,'11111222,11111222,11111222' 
TABS,ioos:station:wmo:42047:1,2008-11-01T18:09:00Z,27.8966,-93.5973,4.0,2.279056822,39.83745611,3.84,'11111222,11111222,11111222' 
TABS,ioos:station:wmo:42047:1,2008-11-01T18:39:00Z,27.8966,-93.5973,4.0,2.631292458,28.6101823,4.26,'11111222,11111222,11111222' 
TABS,ioos:station:wmo:42047:1,2008-11-01T19:09:00Z,27.8966,-93.5973,4.0,2.310411219,41.13896072,4.17,'11111222,11111222,11111222' 
TABS,ioos:station:wmo:42047:1,2008-11-01T19:39:00Z,27.8966,-93.5973,4.0,2.901723626,51.15483826,4.47,'11111222,11111222,11111222' 
TABS,ioos:station:wmo:42047:1,2008-11-01T20:09:00Z,27.8966,-93.5973,4.0,3.293706119,38.7138418,5.11,'11111222,11111222,11111222' 
TABS,ioos:station:wmo:42047:1,2008-11-01T20:39:00Z,27.8966,-93.5973,4.0,3.208005611,36.76243966,5.29,'11111222,11111222,11111222' 
TABS,ioos:station:wmo:42047:1,2008-11-01T21:09:00Z,27.8966,-93.5973,4.0,2.991721912,29.64958371,5.08,'11111222,11111222,11111222' 
TABS,ioos:station:wmo:42047:1,2008-11-01T21:39:00Z,27.8966,-93.5973,4.0,3.392064268,34.06456048,5.51,'11111222,11111222,11111222' 
TABS,ioos:station:wmo:42047:1,2008-11-01T22:09:00Z,27.8966,-93.5973,4.0,3.224856586,27.51829354,5.01,'11111222,11111222,11111222' 
TABS,ioos:station:wmo:42047:1,2008-11-01T22:39:00Z,27.8966,-93.5973,4.0,3.561137459,42.1543296,6.01,'11111222,11111222,11111222' 
TABS,ioos:station:wmo:42047:1,2008-11-01T23:09:00Z,27.8966,-93.5973,4.0,3.987229615,40.32043609,6.3,'11111222,11111222,11111222' 
TABS,ioos:station:wmo:42047:1,2008-11-01T23:39:00Z,27.8966,-93.5973,4.0,3.733550589,45.21671223,6.06,'11111222,11111222,11111222' 
TABS,ioos:station:wmo:42047:1,2008-11-02T00:09:00Z,27.8966,-93.5973,4.0,3.47023054,36.20916169,5.92,'11111222,11111222,11111222' 
TABS,ioos:station:wmo:42047:1,2008-11-02T00:39:00Z,27.8966,-93.5973,4.0,3.712478956,45.54534063,5.96,'11111222,11111222,11111222' 
TABS,ioos:station:wmo:42047:1,2008-11-02T01:09:00Z,27.8966,-93.5973,4.0,3.826042342,52.86021355,6.23,'11111222,11111222,11111222' 
TABS,ioos:station:wmo:42047:1,2008-11-02T01:39:00Z,27.8966,-93.5973,4.0,4.499688878,64.45965124,6.98,'11111222,11111222,11111222' 
TABS,ioos:station:wmo:42047:1,2008-11-02T02:09:00Z,27.8966,-93.5973,4.0,4.183598929,61.59685753,6.41,'11111222,11111222,11111222' 
TABS,ioos:station:wmo:42047:1,2008-11-02T02:39:00Z,27.8966,-93.5973,4.0,4.107967867,57.12196571,6.25,'11111222,11111222,11111222' 
TABS,ioos:station:wmo:42047:1,2008-11-02T03:09:00Z,27.8966,-93.5973,4.0,4.095289978,69.26345903,6.58,'11111222,11111222,11111222' 
TABS,ioos:station:wmo:42047:1,2008-11-02T03:39:00Z,27.8966,-93.5973,4.0,4.4370373,74.71051959,6.98,'11111222,11111222,11111222' 
TABS,ioos:station:wmo:42047:1,2008-11-02T04:09:00Z,27.8966,-93.5973,4.0,4.3220944,80.27575638,6.29,'11111222,11111222,11111222' 
TABS,ioos:station:wmo:42047:1,2008-11-02T04:39:00Z,27.8966,-93.5973,4.0,3.759321747,76.14819246,6.11,'11111222,11111222,11111222' 
TABS,ioos:station:wmo:42047:1,2008-11-02T05:09:00Z,27.8966,-93.5973,4.0,3.720349446,80.56259745,5.65,'11111222,11111222,11111222' 
TABS,ioos:station:wmo:42047:1,2008-11-02T05:39:00Z,27.8966,-93.5973,4.0,3.182011942,72.81745997,5.4,'11111222,11111222,11111222' 
TABS,ioos:station:wmo:42047:1,2008-11-02T06:09:00Z,27.8966,-93.5973,4.0,3.031369328,69.53206935,5.17,'11111222,11111222,11111222' 
TABS,ioos:station:wmo:42047:1,2008-11-02T06:39:00Z,27.8966,-93.5973,4.0,3.119695498,83.55799405,6.06,'11111222,11111222,11111222' 
TABS,ioos:station:wmo:42047:1,2008-11-02T07:09:00Z,27.8966,-93.5973,4.0,2.957786334,70.03306916,5.05,'11111222,11111222,11111222' 
TABS,ioos:station:wmo:42047:1,2008-11-02T07:39:00Z,27.8966,-93.5973,4.0,3.386148254,82.8745794,5.57,'11111222,11111222,11111222' 
TABS,ioos:station:wmo:42047:1,2008-11-02T08:09:00Z,27.8966,-93.5973,4.0,3.419766074,98.74656273,6.0,'11111222,11111222,11111222' 
TABS,ioos:station:wmo:42047:1,2008-11-02T08:39:00Z,27.8966,-93.5973,4.0,3.133592188,92.74411948,5.52,'11111222,11111222,11111222' 
TABS,ioos:station:wmo:42047:1,2008-11-02T09:09:00Z,27.8966,-93.5973,4.0,3.103949098,110.3619766,5.22,'11111222,11111222,11111222' 
TABS,ioos:station:wmo:42047:1,2008-11-02T09:39:00Z,27.8966,-93.5973,4.0,2.384302833,103.3372281,4.3,'11111222,11111222,11111222' 
TABS,ioos:station:wmo:42047:1,2008-11-02T10:09:00Z,27.8966,-93.5973,4.0,2.631539473,104.3006649,4.68,'11111222,11111222,11111222' 
TABS,ioos:station:wmo:42047:1,2008-11-02T10:39:00Z,27.8966,-93.5973,4.0,2.480907092,78.37262529,4.49,'11111222,11111222,11111222' 
TABS,ioos:station:wmo:42047:1,2008-11-02T11:09:00Z,27.8966,-93.5973,4.0,2.490321264,90.92075373,4.26,'11111222,11111222,11111222' 
TABS,ioos:station:wmo:42047:1,2008-11-02T11:39:00Z,27.8966,-93.5973,4.0,3.100919219,85.18991562,5.6,'11111222,11111222,11111222' 
TABS,ioos:station:wmo:42047:1,2008-11-02T12:09:00Z,27.8966,-93.5973,4.0,2.747817316,81.84000751,5.18,'11111222,11111222,11111222' 
TABS,ioos:station:wmo:42047:1,2008-11-02T12:39:00Z,27.8966,-93.5973,4.0,2.55327241,84.15502687,4.96,'11111222,11111222,11111222' 
TABS,ioos:station:wmo:42047:1,2008-11-02T13:09:00Z,27.8966,-93.5973,4.0,2.364783288,75.55202215,4.51,'11111222,11111222,11111222' 
TABS,ioos:station:wmo:42047:1,2008-11-02T13:39:00Z,27.8966,-93.5973,4.0,3.331321059,73.25095271,5.16,'11111222,11111222,11111222' 
TABS,ioos:station:wmo:42047:1,2008-11-02T14:09:00Z,27.8966,-93.5973,4.0,3.300015151,67.55338967,5.47,'11111222,11111222,11111222' 
TABS,ioos:station:wmo:42047:1,2008-11-02T14:39:00Z,27.8966,-93.5973,4.0,3.512506228,78.33777793,5.53,'11111222,11111222,11111222' 
TABS,ioos:station:wmo:42047:1,2008-11-02T15:09:00Z,27.8966,-93.5973,4.0,3.985097238,78.85885262,6.09,'11111222,11111222,11111222' 
TABS,ioos:station:wmo:42047:1,2008-11-02T15:39:00Z,27.8966,-93.5973,4.0,4.655630999,63.87489372,7.24,'11111222,11111222,11111222' 
TABS,ioos:station:wmo:42047:1,2008-11-02T16:09:00Z,27.8966,-93.5973,4.0,3.512506228,78.33777793,6.27,'11111222,11111222,11111222' 
TABS,ioos:station:wmo:42047:1,2008-11-02T16:39:00Z,27.8966,-93.5973,4.0,3.144550842,73.17820853,5.04,'11111222,11111222,11111222' 
TABS,ioos:station:wmo:42047:1,2008-11-02T17:09:00Z,27.8966,-93.5973,4.0,3.235135237,65.33582204,5.59,'11111222,11111222,11111222' 
TABS,ioos:station:wmo:42047:1,2008-11-02T17:39:00Z,27.8966,-93.5973,4.0,3.963395009,70.23883368,6.67,'11111222,11111222,11111222' 
TABS,ioos:station:wmo:42047:1,2008-11-02T18:09:00Z,27.8966,-93.5973,4.0,3.843761179,69.91463783,6.36,'11111222,11111222,11111222' 
TABS,ioos:station:wmo:42047:1,2008-11-02T18:39:00Z,27.8966,-93.5973,4.0,3.945288329,73.35601423,6.36,'11111222,11111222,11111222' 
TABS,ioos:station:wmo:42047:1,2008-11-02T19:09:00Z,27.8966,-93.5973,4.0,4.067247226,69.11382646,7.14,'11111222,11111222,11111222' 
TABS,ioos:station:wmo:42047:1,2008-11-02T19:39:00Z,27.8966,-93.5973,4.0,4.078038744,68.72002442,6.48,'11111222,11111222,11111222' 
TABS,ioos:station:wmo:42047:1,2008-11-02T20:09:00Z,27.8966,-93.5973,4.0,4.364974227,66.07712914,7.09,'11111222,11111222,11111222' 
TABS,ioos:station:wmo:42047:1,2008-11-02T20:39:00Z,27.8966,-93.5973,4.0,5.086472255,61.97354029,7.72,'11111222,11111222,11111222' 
TABS,ioos:station:wmo:42047:1,2008-11-02T21:09:00Z,27.8966,-93.5973,4.0,5.099019514,62.42950637,7.72,'11111222,11111222,11111222' 
TABS,ioos:station:wmo:42047:1,2008-11-02T21:39:00Z,27.8966,-93.5973,4.0,5.292721417,65.08084179,7.84,'11111222,11111222,11111222' 
TABS,ioos:station:wmo:42047:1,2008-11-02T22:09:00Z,27.8966,-93.5973,4.0,4.956793318,69.07830177,7.25,'11111222,11111222,11111222' 
TABS,ioos:station:wmo:42047:1,2008-11-02T22:39:00Z,27.8966,-93.5973,4.0,4.972444067,76.74589445,7.0,'11111222,11111222,11111222' 
TABS,ioos:station:wmo:42047:1,2008-11-02T23:09:00Z,27.8966,-93.5973,4.0,4.615506473,64.0452763,8.01,'11111222,11111222,11111222' 
TABS,ioos:station:wmo:42047:1,2008-11-02T23:39:00Z,27.8966,-93.5973,4.0,4.355972911,63.84635862,6.84,'11111222,11111222,11111222' 
TABS,ioos:station:wmo:42047:1,2008-11-03T00:09:00Z,27.8966,-93.5973,4.0,4.560745553,70.53171541,7.29,'11111222,11111222,11111222' 
TABS,ioos:station:wmo:42047:1,2008-11-03T00:39:00Z,27.8966,-93.5973,4.0,5.287872918,72.38704243,7.98,'11111222,11111222,11111222' 
TABS,ioos:station:wmo:42047:1,2008-11-03T01:09:00Z,27.8966,-93.5973,4.0,5.241497878,70.14726707,8.19,'11111222,11111222,11111222' 
TABS,ioos:station:wmo:42047:1,2008-11-03T01:39:00Z,27.8966,-93.5973,4.0,5.158381529,72.51307382,7.44,'11111222,11111222,11111222' 
TABS,ioos:station:wmo:42047:1,2008-11-03T02:09:00Z,27.8966,-93.5973,4.0,5.783165223,86.13279117,8.19,'11111222,11111222,11111222' 
TABS,ioos:station:wmo:42047:1,2008-11-03T02:39:00Z,27.8966,-93.5973,4.0,5.760920065,76.85590208,8.73,'11111222,11111222,11111222' 
TABS,ioos:station:wmo:42047:1,2008-11-03T03:09:00Z,27.8966,-93.5973,4.0,5.235503796,87.37217663,7.28,'11111222,11111222,11111222' 
TABS,ioos:station:wmo:42047:1,2008-11-03T03:39:00Z,27.8966,-93.5973,4.0,4.967594992,82.9461095,8.29,'11111222,11111222,11111222' 
TABS,ioos:station:wmo:42047:1,2008-11-03T04:09:00Z,27.8966,-93.5973,4.0,5.101656594,91.46058196,7.68,'11111222,11111222,11111222' 
TABS,ioos:station:wmo:42047:1,2008-11-03T04:39:00Z,27.8966,-93.5973,4.0,4.98615082,95.87107593,8.12,'11111222,11111222,11111222' 
TABS,ioos:station:wmo:42047:1,2008-11-03T05:09:00Z,27.8966,-93.5973,4.0,4.223564845,99.95336848,7.23,'11111222,11111222,11111222' 
TABS,ioos:station:wmo:42047:1,2008-11-03T05:39:00Z,27.8966,-93.5973,4.0,4.114328621,109.0078236,6.84,'11111222,11111222,11111222' 
TABS,ioos:station:wmo:42047:1,2008-11-03T06:09:00Z,27.8966,-93.5973,4.0,4.365890516,102.0309889,7.39,'11111222,11111222,11111222' 
TABS,ioos:station:wmo:42047:1,2008-11-03T06:39:00Z,27.8966,-93.5973,4.0,4.674023962,104.7501886,8.09,'11111222,11111222,11111222' 
TABS,ioos:station:wmo:42047:1,2008-11-03T07:09:00Z,27.8966,-93.5973,4.0,4.786083994,100.2302911,7.04,'11111222,11111222,11111222' 
TABS,ioos:station:wmo:42047:1,2008-11-03T07:39:00Z,27.8966,-93.5973,4.0,3.972467747,110.9446855,6.29,'11111222,11111222,11111222' 
TABS,ioos:station:wmo:42047:1,2008-11-03T08:09:00Z,27.8966,-93.5973,4.0,3.828733472,122.1960796,6.65,'11111222,11111222,11111222' 
TABS,ioos:station:wmo:42047:1,2008-11-03T08:39:00Z,27.8966,-93.5973,4.0,3.656993301,122.0389441,6.33,'11111222,11111222,11111222' 
TABS,ioos:station:wmo:42047:1,2008-11-03T09:09:00Z,27.8966,-93.5973,4.0,3.485426803,138.4896324,5.73,'11111222,11111222,11111222' 
TABS,ioos:station:wmo:42047:1,2008-11-03T09:39:00Z,27.8966,-93.5973,4.0,2.924055403,120.8632917,6.12,'11111222,11111222,11111222' 
TABS,ioos:station:wmo:42047:1,2008-11-03T10:09:00Z,27.8966,-93.5973,4.0,3.515508498,117.4400847,5.95,'11111222,11111222,11111222' 
TABS,ioos:station:wmo:42047:1,2008-11-03T10:39:00Z,27.8966,-93.5973,4.0,2.981358751,131.8732584,5.66,'11111222,11111222,11111222' 
TABS,ioos:station:wmo:42047:1,2008-11-03T11:09:00Z,27.8966,-93.5973,4.0,3.127570942,114.7627086,5.91,'11111222,11111222,11111222' 
TABS,ioos:station:wmo:42047:1,2008-11-03T11:39:00Z,27.8966,-93.5973,4.0,3.331561196,112.4085668,6.22,'11111222,11111222,11111222' 
TABS,ioos:station:wmo:42047:1,2008-11-03T12:09:00Z,27.8966,-93.5973,4.0,3.542160358,117.2164688,5.38,'11111222,11111222,11111222' 
TABS,ioos:station:wmo:42047:1,2008-11-03T12:39:00Z,27.8966,-93.5973,4.0,3.591225418,116.9935139,6.08,'11111222,11111222,11111222' 
TABS,ioos:station:wmo:42047:1,2008-11-03T13:09:00Z,27.8966,-93.5973,4.0,3.456153932,112.6329852,5.55,'11111222,11111222,11111222' 
TABS,ioos:station:wmo:42047:1,2008-11-03T13:39:00Z,27.8966,-93.5973,4.0,2.672395929,114.071698,4.9,'11111222,11111222,11111222' 
TABS,ioos:station:wmo:42047:1,2008-11-03T14:09:00Z,27.8966,-93.5973,4.0,3.305525677,109.8057744,5.57,'11111222,11111222,11111222' 
TABS,ioos:station:wmo:42047:1,2008-11-03T14:39:00Z,27.8966,-93.5973,4.0,3.231253627,120.295078,6.19,'11111222,11111222,11111222' 
TABS,ioos:station:wmo:42047:1,2008-11-03T15:09:00Z,27.8966,-93.5973,4.0,3.317981314,97.44670123,5.39,'11111222,11111222,11111222' 
TABS,ioos:station:wmo:42047:1,2008-11-03T15:39:00Z,27.8966,-93.5973,4.0,3.170646622,110.4929678,5.16,'11111222,11111222,11111222' 
TABS,ioos:station:wmo:42047:1,2008-11-03T16:09:00Z,27.8966,-93.5973,4.0,2.908418814,101.503501,5.2,'11111222,11111222,11111222' 
TABS,ioos:station:wmo:42047:1,2008-11-03T16:39:00Z,27.8966,-93.5973,4.0,3.119695498,105.2393961,5.7,'11111222,11111222,11111222' 
TABS,ioos:station:wmo:42047:1,2008-11-03T17:09:00Z,27.8966,-93.5973,4.0,2.943637206,105.9725157,5.13,'11111222,11111222,11111222' 
TABS,ioos:station:wmo:42047:1,2008-11-03T17:39:00Z,27.8966,-93.5973,4.0,2.859597874,103.5506751,5.1,'11111222,11111222,11111222' 
TABS,ioos:station:wmo:42047:1,2008-11-03T18:09:00Z,27.8966,-93.5973,4.0,2.362308193,104.2131063,4.58,'11111222,11111222,11111222' 
TABS,ioos:station:wmo:42047:1,2008-11-03T18:39:00Z,27.8966,-93.5973,4.0,2.348297255,102.7938425,4.66,'11111222,11111222,11111222' 
TABS,ioos:station:wmo:42047:1,2008-11-03T19:09:00Z,27.8966,-93.5973,4.0,1.979419107,80.10899727,3.64,'11111222,11111222,11111222' 
TABS,ioos:station:wmo:42047:1,2008-11-03T19:39:00Z,27.8966,-93.5973,4.0,2.44730464,65.11003612,4.27,'11111222,11111222,11111222' 
TABS,ioos:station:wmo:42047:1,2008-11-03T20:09:00Z,27.8966,-93.5973,4.0,2.556657975,66.24193511,4.56,'11111222,11111222,11111222' 
TABS,ioos:station:wmo:42047:1,2008-11-03T20:39:00Z,27.8966,-93.5973,4.0,2.346103152,79.93503441,4.21,'11111222,11111222,11111222' 
TABS,ioos:station:wmo:42047:1,2008-11-03T21:09:00Z,27.8966,-93.5973,4.0,2.53570503,86.1554525,4.88,'11111222,11111222,11111222' 
TABS,ioos:station:wmo:42047:1,2008-11-03T21:39:00Z,27.8966,-93.5973,4.0,2.415988411,85.964661,4.36,'11111222,11111222,11111222' 
TABS,ioos:station:wmo:42047:1,2008-11-03T22:09:00Z,27.8966,-93.5973,4.0,3.056926561,67.29326134,5.29,'11111222,11111222,11111222' 
TABS,ioos:station:wmo:42047:1,2008-11-03T22:39:00Z,27.8966,-93.5973,4.0,3.105768826,70.63122202,4.79,'11111222,11111222,11111222' 
TABS,ioos:station:wmo:42047:1,2008-11-03T23:09:00Z,27.8966,-93.5973,4.0,3.254796461,60.75696479,5.21,'11111222,11111222,11111222' 
TABS,ioos:station:wmo:42047:1,2008-11-03T23:39:00Z,27.8966,-93.5973,4.0,3.376166465,84.39031775,5.69,'11111222,11111222,11111222' 
TABS,ioos:station:wmo:42047:1,2008-11-04T00:09:00Z,27.8966,-93.5973,4.0,3.997123966,78.01497633,6.63,'11111222,11111222,11111222' 
TABS,ioos:station:wmo:42047:1,2008-11-04T00:39:00Z,27.8966,-93.5973,4.0,3.928523896,74.19445429,6.02,'11111222,11111222,11111222' 
TABS,ioos:station:wmo:42047:1,2008-11-04T01:09:00Z,27.8966,-93.5973,4.0,4.935686376,69.72890292,7.32,'11111222,11111222,11111222' 
TABS,ioos:station:wmo:42047:1,2008-11-04T01:39:00Z,27.8966,-93.5973,4.0,4.526831121,85.05726154,6.52,'11111222,11111222,11111222' 
TABS,ioos:station:wmo:42047:1,2008-11-04T02:09:00Z,27.8966,-93.5973,4.0,4.927200016,73.73476102,7.15,'11111222,11111222,11111222' 
TABS,ioos:station:wmo:42047:1,2008-11-04T02:39:00Z,27.8966,-93.5973,4.0,4.475410596,87.18193277,6.74,'11111222,11111222,11111222' 
TABS,ioos:station:wmo:42047:1,2008-11-04T03:09:00Z,27.8966,-93.5973,4.0,4.443748418,80.28291599,7.35,'11111222,11111222,11111222' 
TABS,ioos:station:wmo:42047:1,2008-11-04T03:39:00Z,27.8966,-93.5973,4.0,4.344951093,82.72737424,6.99,'11111222,11111222,11111222' 
TABS,ioos:station:wmo:42047:1,2008-11-04T04:09:00Z,27.8966,-93.5973,4.0,4.020199,89.42949197,6.38,'11111222,11111222,11111222' 
TABS,ioos:station:wmo:42047:1,2008-11-04T04:39:00Z,27.8966,-93.5973,4.0,4.520011062,89.87281901,6.9,'11111222,11111222,11111222' 
TABS,ioos:station:wmo:42047:1,2008-11-04T05:09:00Z,27.8966,-93.5973,4.0,4.197618372,114.4895044,6.05,'11111222,11111222,11111222' 
TABS,ioos:station:wmo:42047:1,2008-11-04T05:39:00Z,27.8966,-93.5973,4.0,3.864362819,117.4274322,5.96,'11111222,11111222,11111222' 
TABS,ioos:station:wmo:42047:1,2008-11-04T06:09:00Z,27.8966,-93.5973,4.0,3.787043702,119.069652,5.64,'11111222,11111222,11111222' 
TABS,ioos:station:wmo:42047:1,2008-11-04T06:39:00Z,27.8966,-93.5973,4.0,3.223321269,103.8210733,5.73,'11111222,11111222,11111222' 
TABS,ioos:station:wmo:42047:1,2008-11-04T07:09:00Z,27.8966,-93.5973,4.0,2.911219676,102.6999757,5.45,'11111222,11111222,11111222' 
TABS,ioos:station:wmo:42047:1,2008-11-04T07:39:00Z,27.8966,-93.5973,4.0,2.783522948,92.88337763,4.85,'11111222,11111222,11111222' 
TABS,ioos:station:wmo:42047:1,2008-11-04T08:09:00Z,27.8966,-93.5973,4.0,1.798888546,98.31067865,3.66,'11111222,11111222,11111222' 
TABS,ioos:station:wmo:42047:1,2008-11-04T08:39:00Z,27.8966,-93.5973,4.0,2.513662666,80.61222421,4.51,'11111222,11111222,11111222' 
TABS,ioos:station:wmo:42047:1,2008-11-04T09:09:00Z,27.8966,-93.5973,4.0,1.629754583,100.965592,3.58,'11111222,11111222,11111222' 
TABS,ioos:station:wmo:42047:1,2008-11-04T09:39:00Z,27.8966,-93.5973,4.0,0.968813708,78.68967306,2.26,'11111222,11111222,11111222' 
TABS,ioos:station:wmo:42047:1,2008-11-04T10:09:00Z,27.8966,-93.5973,4.0,1.398642199,69.49152807,2.93,'11111222,11111222,11111222' 
TABS,ioos:station:wmo:42047:1,2008-11-04T10:39:00Z,27.8966,-93.5973,4.0,0.681542368,337.5739801,2.31,'11111222,11111222,11111222' 
TABS,ioos:station:wmo:42047:1,2008-11-04T11:09:00Z,27.8966,-93.5973,4.0,0.618546684,34.46052523,2.23,'11111222,11111222,11111222' 
TABS,ioos:station:wmo:42047:1,2008-11-04T11:39:00Z,27.8966,-93.5973,4.0,0.970824392,87.63820995,2.55,'11111222,11111222,11111222' 
TABS,ioos:station:wmo:42047:1,2008-11-04T12:09:00Z,27.8966,-93.5973,4.0,1.441839103,80.01464223,3.25,'11111222,11111222,11111222' 
TABS,ioos:station:wmo:42047:1,2008-11-04T12:39:00Z,27.8966,-93.5973,4.0,0.543415127,77.24207675,2.48,'11111222,11111222,11111222' 
TABS,ioos:station:wmo:42047:1,2008-11-04T13:09:00Z,27.8966,-93.5973,4.0,0.440454311,129.4727885,1.67,'11111222,11111222,11111222' 
TABS,ioos:station:wmo:42047:1,2008-11-04T13:39:00Z,27.8966,-93.5973,4.0,0.506063237,37.77538551,2.69,'11111222,11111222,11111222' 
TABS,ioos:station:wmo:42047:1,2008-11-04T14:09:00Z,27.8966,-93.5973,4.0,0.980815987,309.2071118,3.39,'11111222,11111222,11111222' 
TABS,ioos:station:wmo:42047:1,2008-11-04T14:39:00Z,27.8966,-93.5973,4.0,0.410487515,272.7926958,2.27,'11111222,11111222,11111222' 
TABS,ioos:station:wmo:42047:1,2008-11-04T15:09:00Z,27.8966,-93.5973,4.0,0.501597448,293.4985107,2.41,'11111222,11111222,11111222' 
TABS,ioos:station:wmo:42047:1,2008-11-04T15:39:00Z,27.8966,-93.5973,4.0,0.440454311,182.6027666,1.8,'11111222,11111222,11111222' 
TABS,ioos:station:wmo:42047:1,2008-11-04T16:09:00Z,27.8966,-93.5973,4.0,0.502493781,185.7107902,2.13,'11111222,11111222,11111222' 
TABS,ioos:station:wmo:42047:1,2008-11-04T16:39:00Z,27.8966,-93.5973,4.0,0.774661216,101.165275,2.7,'11111222,11111222,11111222' 
TABS,ioos:station:wmo:42047:1,2008-11-04T17:09:00Z,27.8966,-93.5973,4.0,0.869770085,171.4043191,2.24,'11111222,11111222,11111222' 
TABS,ioos:station:wmo:42047:1,2008-11-04T17:39:00Z,27.8966,-93.5973,4.0,0.95131488,140.1176186,2.84,'11111222,11111222,11111222' 
TABS,ioos:station:wmo:42047:1,2008-11-04T18:09:00Z,27.8966,-93.5973,4.0,0.868331734,104.6767797,2.64,'11111222,11111222,11111222' 
TABS,ioos:station:wmo:42047:1,2008-11-04T18:39:00Z,27.8966,-93.5973,4.0,1.075174404,133.4928835,3.05,'11111222,11111222,11111222' 